Danvers, MA

6:10 AM EDT on July 24, 2016 (GMT -0400)
Beverly Municipal

Weather History for KBVY - March, 2013

Change the Weather History Date:

Wednesday, March 27, 2013

  Actual Average Record
Temperature  
Mean Temperature 42 °F -  
Max Temperature 54 °F 45 °F 64 °F (2004)
Min Temperature 32 °F 29 °F 19 °F (2014)
Degree Days  
Heating Degree Days 22    
Moisture  
Dew Point 24 °F    
Average Humidity 49    
Maximum Humidity 73    
Minimum Humidity 30    
Precipitation  
Precipitation 0.00 in - - ()
Sea Level Pressure  
Sea Level Pressure 29.77 in    
Wind  
Wind Speed 8 mph (NW)    
Max Wind Speed 20 mph    
Max Gust Speed 26 mph    
Visibility 10 miles    
Events Rain    
Averages and records for this station are not official NWS values.
T = Trace of Precipitation, MM = Missing Value Source: NWS Daily Summary

Daily Weather History Graph

Daily Weather History Graph

Search for Another Location

Airport or City:

Trip Planner

Search our weather history database for the weather conditions in past years. The results will help you decide how hot, cold, wet, or windy it might be!

Date:

Astronomy

Mar. 27, 2013 Rise Set
Actual Time 6:34 AM EDT 7:04 PM EDT
Civil Twilight 6:06 AM EDT 7:32 PM EDT
Nautical Twilight 5:32 AM EDT 8:05 PM EDT
Astronomical Twilight 4:58 AM EDT 8:40 PM EDT
Moon 7:46 PM EDT (3/27) 6:22 AM EDT (3/27)
Length of Visible Light 13h 26m
Length of Day
12h 29m
Full, 100% of the Moon is Illuminated
Mar 27
Full
Apr 3
Last Quarter
Apr 10
New
Apr 18
First Quarter
Apr 25
Full

Hourly Weather History & Observations

Time (EDT) Temp. Windchill Dew Point Humidity Pressure Visibility Wind Dir Wind Speed Gust Speed Precip Events Conditions
12:53 AM 36.0 °F 31.1 °F 19.9 °F 52% 29.75 in 10.0 mi WNW 5.8 mph - N/A   Clear
1:53 AM 35.1 °F 31.0 °F 19.9 °F 54% 29.76 in 10.0 mi WNW 4.6 mph - N/A   Clear
2:53 AM 34.0 °F 29.8 °F 19.9 °F 56% 29.75 in 10.0 mi WNW 4.6 mph - N/A   Clear
3:53 AM 33.1 °F 30.0 °F 19.9 °F 59% 29.75 in 10.0 mi WNW 3.5 mph - N/A   Clear
4:53 AM 32.0 °F 27.5 °F 19.9 °F 61% 29.75 in 10.0 mi WNW 4.6 mph - N/A   Clear
5:53 AM 32.0 °F 28.7 °F 19.9 °F 61% 29.76 in 10.0 mi West 3.5 mph - N/A   Clear
6:53 AM 32.0 °F 27.5 °F 19.9 °F 61% 29.76 in 10.0 mi West 4.6 mph - N/A   Clear
7:53 AM 36.0 °F 31.1 °F 21.0 °F 55% 29.78 in 10.0 mi West 5.8 mph - N/A   Clear
8:53 AM 41.0 °F 35.2 °F 21.9 °F 47% 29.77 in 10.0 mi WNW 9.2 mph - N/A   Clear
9:53 AM 45.0 °F 38.5 °F 23.0 °F 42% 29.77 in 10.0 mi NW 13.8 mph 20.7 mph N/A   Clear
10:53 AM 46.9 °F - 24.1 °F 41% 29.76 in 10.0 mi NW 10.4 mph - N/A   Clear
11:53 AM 50.0 °F - 25.0 °F 38% 29.75 in 10.0 mi NW 12.7 mph 20.7 mph N/A   Clear
12:53 PM 52.0 °F - 25.0 °F 35% 29.74 in 10.0 mi NW 8.1 mph 20.7 mph N/A   Partly Cloudy
1:53 PM 50.0 °F - 21.9 °F 33% 29.73 in 10.0 mi WNW 13.8 mph 19.6 mph N/A   Partly Cloudy
2:53 PM 52.0 °F - 23.0 °F 32% 29.71 in 10.0 mi NNW 19.6 mph 25.3 mph N/A   Mostly Cloudy
3:53 PM 50.0 °F - 23.0 °F 35% 29.72 in 10.0 mi NNW 13.8 mph - N/A   Mostly Cloudy
4:53 PM 53.1 °F - 21.9 °F 30% 29.73 in 10.0 mi NNW 18.4 mph 26.5 mph N/A   Mostly Cloudy
5:53 PM 50.0 °F - 21.9 °F 33% 29.76 in 10.0 mi North 18.4 mph 26.5 mph N/A   Mostly Cloudy
6:53 PM 46.0 °F 43.9 °F 26.1 °F 46% 29.79 in 10.0 mi NE 4.6 mph - N/A   Overcast
7:53 PM 45.0 °F 40.6 °F 26.1 °F 48% 29.81 in 10.0 mi North 8.1 mph - N/A   Overcast
8:53 PM 44.1 °F 40.1 °F 27.0 °F 51% 29.83 in 10.0 mi North 6.9 mph 17.3 mph N/A   Overcast
9:53 PM 42.1 °F 34.5 °F 30.0 °F 62% 29.84 in 10.0 mi North 15.0 mph 21.9 mph N/A   Overcast
10:53 PM 41.0 °F 35.2 °F 32.0 °F 70% 29.85 in 10.0 mi NNW 9.2 mph - 0.00 in Rain Light Rain
11:53 PM 39.9 °F 33.9 °F 32.0 °F 73% 29.84 in 10.0 mi NW 9.2 mph - 0.00 in   Mostly Cloudy